Regional Weather Roundup
Issued by NWS Upton, NY

Current Version | Previous Version | Graphics & Text | Print | Product List | Glossary Off
Versions: 1 2 3 4 5 6 7 8 9 10 11 12 13 14 15 16 17 18 19 20 21 22 23 24 25 26 27 28 29 30 31 32 33 34 35 36 37 38 39 40 41 42 43 44 45 46 47 48 49 50

000
ASUS41 KOKX 301708
RWROKX

REGIONAL WEATHER ROUNDUP
NATIONAL WEATHER SERVICE NEW YORK NY
100 PM EDT SAT MAY 30 2015

NOTE: "FAIR" INDICATES FEW OR NO CLOUDS BELOW 12,000 FEET WITH NO
SIGNIFICANT WEATHER AND/OR OBSTRUCTIONS TO VISIBILITY.

NYZ071-072-176-178-NJZ106-104-301800-
NEW YORK CITY METRO AREA


CITY           SKY/WX    TMP DP  RH WIND       PRES   REMARKS
CENTRAL PARK   MOSUNNY   82  64  54 VRB6      30.18F
LAGUARDIA APRT MOSUNNY   81  64  56 S15       30.15F
KENNEDY INTL   MOSUNNY   76  63  64 S14       30.19F
NEWARK/LIBERTY MOSUNNY   83  66  56 S9G18     30.15F
BRNX BOT. GARD   N/A     81  64  57 S10       30.17S
TETERBORO      MOSUNNY   83  65  54 S15G21    30.14F
$$

NYZ177-179-078>081-301800-
LONG ISLAND NEW YORK

CITY           SKY/WX    TMP DP  RH WIND       PRES   REMARKS
FARMINGDALE    SUNNY     78  66  66 SW15G23   30.19F
ISLIP          MOSUNNY   76  65  68 S14       30.18F
SHIRLEY        SUNNY     77  65  66 S14G23    30.20F
WESTHAMPTON    SUNNY     74  65  73 SW16G22   30.21F
MONTAUK POINT    N/A     70  63  78 S7        30.22F
$$

NYZ052-065-067-301800-
HUDSON VALLEY

CITY           SKY/WX    TMP DP  RH WIND       PRES   REMARKS
WHITE PLAINS   MOSUNNY   80  66  62 SE14G22   30.16F
NEWBURGH       PTSUNNY   81  68  65 S8        30.15F
MONTGOMERY     SUNNY     84  67  56 SW15G23   30.12F
POUGHKEEPSIE   CLOUDY    82  65  56 S8        30.11F
ALBANY         PTSUNNY   85  65  51 S13G23    30.06F
$$

NJZ001-105-106-008-010-013-015-019>022-104-301800-
NEW JERSEY

CITY           SKY/WX    TMP DP  RH WIND       PRES   REMARKS
NEWARK/LIBERTY MOSUNNY   83  66  56 S9G18     30.15F
TETERBORO      MOSUNNY   83  65  54 S15G21    30.14F
CALDWELL       MOSUNNY   81  65  58 S9G18     30.15F
MORRISTOWN     PTSUNNY   84  68  58 SW15      30.16F
SOMERVILLE     MOSUNNY   83  67  58 S9        30.13F
SUSSEX         MOSUNNY   81  65  58 SW6       30.16F
ANDOVER          N/A     79  66  64 VRB7      30.15F
TRENTON        PTSUNNY   83  66  56 S15       30.16F
MILLVILLE      MOSUNNY   82  68  62 SW8       30.18F
ATLANTIC CITY  SUNNY     81  66  60 S12       30.19F
WRIGHTSTOWN    MOSUNNY   86  65  50 SW13      30.13F
TOMS RIVER     PTSUNNY  N/A N/A N/A S14       30.16F
BELMAR         SUNNY     82  66  57 SE12G20   30.17F
$$

PAZ047>061-062-071-301800-
EASTERN PENNSYLVANIA

CITY           SKY/WX    TMP DP  RH WIND       PRES   REMARKS
PHILADELPHIA   MOSUNNY   84  66  54 S9        30.16F
ALLENTOWN      PTSUNNY   85  66  53 S12       30.14F
SCRANTON       PTSUNNY   83  64  52 SW13G18   30.12F
$$

CTZ002-004>006-009-010-012-RIZ004-006-007-MAZ004-011-015-301800-
SOUTHERN NEW ENGLAND
 IN CT

CITY           SKY/WX    TMP DP  RH WIND       PRES   REMARKS
BRADLEY INTL   PTSUNNY   83  65  54 S13       30.12F
HARTFORD       MOSUNNY   82  61  48 S15G25    30.14F
DANBURY        PTSUNNY   81  65  58 S12       30.17F
WTRBRY/OXFORD  MOSUNNY   81  63  54 S15G23    30.19F
BRIDGEPORT     SUNNY     79  65  62 S13       30.17F
MERIDEN        SUNNY     82  63  52 S15G23    30.16F
NEW HAVEN      MOSUNNY   77  65  66 S10       30.18F
CHESTER        FAIR      75  64  69 S14G20    30.20F
GROTON         SUNNY     71  64  78 S6        30.19F
WILLIMANTIC    MOSUNNY   82  63  52 SW9       30.16F

 IN RI

CITY           SKY/WX    TMP DP  RH WIND       PRES   REMARKS
PROVIDENCE     MOSUNNY   84  58  40 SW21      30.17F
BLOCK ISLAND   CLOUDY    66  61  82 SW15      30.23F
WESTERLY       SUNNY     72  63  73 S10       30.21F

 IN MA

CITY           SKY/WX    TMP DP  RH WIND       PRES   REMARKS
BOSTON         MOSUNNY   85  62  46 SW22G29   30.11F
WORCESTER      MOSUNNY   81  62  52 SW18G25   30.16F
WESTFIELD      MOSUNNY   85  64  49 S18G26    30.11F
PROVINCETOWN   SUNNY     73  63  68 S22G28    30.17F
NANTUCKET      HAZE      67  62  84 S13       30.23F VSB 1
$$

ANZ330-335-338-340-345-350-353-355-301800-
COASTAL MARINE OBSERVATIONS


STATION/POSITION TIME  SKY/WX   TEMP    WIND        PRES    VSBY  WAVE
                                AIR SEA DIR/SP/G                  HT/PER
                 (UTC)          (F)     (DEG/KT/KT) (MB)    (MI)  (FT/S)
NY HARB ENTRANCE 1650            65 62  180/ 14/ 16 1021.6          3/ 9
4S FIRE IS       1603               60                N/A           3/ 9
20S FIRE ISLAND  1650            64 60  190/ 12/ 14 1022.5          3/ 9
GREAT SOUTH BAY  1600            66 70  240/ 12/ 16   N/A
23SW MTP         1650            61 58  210/  8/ 10 1022.9          3/ 9
HUDSON CANYON    NOT AVBL
KINGS POINT      1600            72 57  190/ 12/ 13 1021.5
CENTRAL LI SOUND NOT AVBL
EASTERN LI SOUND 1600            60     180/  4/  4   N/A
ROBBINS REEF     1600            72     160/ 14/ 15 1020.8
$$


>>>>>>>>>>>>>>>>>>>>>>>>>>>> KEY <<<<<<<<<<<<<<<<<<<<<<<<<<<
>                                                          <
>     SKY/WX - SKY CONDITION/PRESENT WEATHER               <
>     TMP    - TEMPERATURE IN FAHRENHEIT                   <
>     DP     - DEWPOINT IN FAHRENHEIT                      <
>     RH     - RELATIVE HUMIDITY IN PERCENT                <
>     WIND   - DIRECTION AND SPEED IN MPH                  <
>     PRES   - MEAN SEA LEVEL PRESSURE IN INCHES OF HG     <
>     WCI    - WIND CHILL INDEX                            <
>     VSB    - VISIBILITY IN MILES                         <
>     HX     - HEAT INDEX                                  <
>     TC     - TEMPERATURE IN CELSIUS                      <
>     VRB    - VARIABLE WIND DIRECTION                     <
>                                                          <
>>>>>>>>>>>>>>>>>>>>>>>>>>>> KEY <<<<<<<<<<<<<<<<<<<<<<<<<<<




USA.gov is the U.S. government's official web portal to all federal, state and local government web resources and services.